Location: Antioch Baptist Church
(32.6696°N, 85.7327°W)
Time: 08:30:42
(UTC+00:00)

Cosmos-2242 - Pass Details

Date: 01 November 2020
Orbit: 592 x 616 km, 82.5° (Epoch: 03 December)

Event Time Altitude Azimuth Distance (km) Brightness Sun altitude
Rises 01:35:49 0° 227° (SW) 2,818 7.0 -34.8°
Reaches altitude 10° 01:38:58 10° 253° (WSW) 1,925 6.3 -35.5°
Maximum altitude 01:41:14 14° 285° (WNW) 1,678 5.9 -36.0°
Enters shadow 01:43:03 11° 312° (NW) 1,848 6.0 -36.3°
